Theta_e
349 354 362 359 361 362 363 363 363 364 363 364 365 363 363 364 366 366 365 363 364 364 362 361 360 359 359 358 358 358 358 355 357 359 356 360 362 364 362 364 363 358 360
351 355 362 360 361 363 364 363 364 362 363 362 363 363 362 363 366 364 363 360 360 360 361 360 360 357 358 357 357 357 358 355 355 357 360 359 360 364 363 362 362 359 361
352 355 359 364 363 363 363 362 363 364 362 363 363 362 362 362 361 361 361 360 359 359 358 360 359 357 356 356 356 355 358 358 358 357 351 345 350 359 361 361 359 362 362
354 356 358 364 364 362 363 363 364 363 363 363 361 361 360 360 360 361 361 360 360 360 359 359 359 357 357 356 356 355 355 357 357 352 340 334 341 356 355 359 352 360 362
354 355 356 363 365 364 363 364 363 364 363 363 362 359 357 357 359 359 359 359 360 360 359 358 357 356 356 354 355 355 354 355 355 350 340 331 335 351 358 355 351 357 361
354 355 360 363 363 363 363 363 363 362 362 362 362 360 357 356 355 358 359 359 358 359 358 358 356 357 355 355 356 356 356 355 353 339 335 333 340 353 357 356 354 359 358
352 354 358 364 363 363 363 363 362 362 362 361 360 360 356 356 357 358 357 358 358 359 359 359 358 357 357 357 357 357 357 355 351 345 338 335 342 351 357 359 358 359 357
352 356 358 364 365 364 364 363 362 362 362 360 359 357 355 358 356 357 358 359 359 359 360 358 358 357 354 356 356 356 356 354 347 343 343 339 342 355 359 355 359 359 355
354 354 355 355 359 363 362 363 362 362 360 360 359 355 356 358 358 358 357 356 356 356 356 356 357 356 355 355 353 355 357 354 337 342 341 343 349 357 358 354 356 355 356
354 353 353 353 355 354 355 363 362 361 360 360 359 358 357 356 355 356 357 358 356 357 356 356 356 357 357 355 353 355 357 355 338 339 338 341 355 358 357 357 357 358 357
349 350 351 350 349 351 352 356 359 360 359 360 358 357 351 345 346 347 355 357 357 358 356 356 357 357 356 356 354 354 356 345 341 339 334 342 355 357 355 357 356 357 358
344 347 350 349 348 349 354 351 350 352 350 350 349 347 349 344 343 351 352 358 357 356 358 357 357 357 357 351 349 353 349 345 341 338 337 343 356 358 355 355 356 356 357
344 347 349 350 350 348 350 349 347 347 347 346 346 346 347 348 348 348 349 347 348 355 350 352 351 351 350 350 351 348 347 344 343 342 343 351 357 358 356 356 355 356 356
341 343 348 349 348 348 349 348 347 346 346 345 343 345 347 346 345 345 346 346 346 342 348 347 345 349 349 349 351 350 347 346 344 345 345 356 357 356 355 355 356 356 356
339 342 346 347 348 348 349 348 347 346 345 345 345 345 346 344 345 345 341 346 343 344 346 346 344 343 345 349 346 345 342 345 346 345 345 358 358 358 356 355 355 356 356
339 341 344 346 348 347 347 347 347 345 345 344 344 345 345 348 344 343 344 346 345 344 345 347 345 336 336 341 340 343 345 343 345 345 346 350 359 359 357 356 355 355 355
339 342 343 344 346 346 346 345 347 345 347 344 344 344 343 345 342 342 345 345 346 344 345 347 346 340 334 338 342 346 346 344 344 345 346 348 352 359 357 356 357 356 355
340 341 343 347 344 343 343 344 345 345 345 342 343 343 341 344 344 342 344 343 344 347 346 345 339 334 336 341 341 340 343 344 344 345 348 349 351 353 355 357 359 359 357
340 341 343 345 344 343 343 343 344 344 343 341 342 344 341 348 348 344 344 342 344 347 343 347 341 340 340 340 343 340 344 342 342 346 347 347 348 351 349 356 361 361 358
341 342 342 342 342 341 342 342 342 342 343 342 341 344 345 344 345 343 343 341 344 345 343 345 343 343 341 339 344 344 342 342 342 342 342 347 347 349 347 347 350 354 360
341 339 340 340 339 339 338 338 337 338 340 341 342 344 343 341 345 344 344 341 343 342 343 344 344 339 336 338 337 335 334 339 340 342 342 341 342 345 344 346 346 348 349
339 339 339 339 338 338 337 337 338 340 340 341 341 344 343 341 346 341 341 338 343 343 344 340 344 337 333 333 330 327 327 333 337 340 341 342 340 342 343 344 346 347 346
338 338 338 338 337 337 338 338 339 341 339 338 340 340 344 344 344 344 338 338 338 340 341 338 341 339 327 330 330 328 323 325 328 335 334 339 341 341 343 342 344 345 345
340 340 339 338 335 336 338 337 337 336 333 336 337 342 341 344 347 344 338 338 338 339 337 339 347 338 331 328 329 333 329 329 326 325 331 333 335 341 340 341 342 343 343
341 341 340 338 335 335 335 335 337 335 334 334 336 339 339 344 345 342 340 339 340 340 344 342 347 339 334 331 328 328 328 327 328 323 322 327 332 337 340 340 343 344 345
342 343 341 338 336 333 334 334 336 335 332 331 332 335 339 343 346 342 339 339 338 342 343 345 348 341 340 339 333 332 330 330 330 329 328 328 327 333 337 338 340 344 347
Wind_Speed
6 7 11 10 6 9 11 13 13 13 13 13 14 15 15 16 17 16 16 13 12 14 10 9 9 9 8 7 6 4 4 5 7 6 7 9 9 10 9 11 13 9 12
11 7 12 10 7 9 9 10 11 12 13 12 12 13 14 15 16 16 15 14 12 11 10 10 9 7 5 5 4 4 4 4 6 6 7 9 9 11 10 10 11 9 12
11 8 9 10 11 10 9 9 10 11 12 12 12 12 12 12 12 14 14 12 11 10 9 9 8 6 3 2 2 2 3 5 7 5 3 3 2 7 12 12 9 13 13
10 7 6 9 11 13 11 10 11 11 11 12 11 11 10 9 9 10 11 10 10 9 9 8 7 6 4 3 2 0 2 4 6 6 2 4 3 10 7 12 8 8 12
9 6 8 13 12 13 12 11 10 10 10 11 11 9 8 7 9 8 9 10 9 9 8 6 6 4 3 2 2 0 1 3 5 4 1 1 2 3 12 10 8 8 12
8 7 11 14 13 12 11 10 10 10 10 10 9 8 7 5 9 8 9 9 9 8 6 5 4 4 2 3 3 3 6 6 4 4 1 2 1 4 8 10 9 10 10
7 6 9 14 13 13 11 10 10 10 9 8 7 8 5 5 6 7 8 8 8 9 8 7 6 4 3 3 3 6 8 6 4 3 1 2 2 3 6 9 10 11 9
10 7 8 14 14 13 12 10 9 9 8 8 7 6 6 7 4 5 6 7 8 9 7 6 6 3 3 3 5 5 7 2 4 3 1 2 2 5 7 8 10 11 8
8 7 5 6 10 13 11 10 9 9 7 7 6 7 7 9 7 6 6 6 7 8 7 6 5 3 3 3 0 4 7 3 4 3 2 1 2 3 6 8 9 9 8
8 6 6 5 5 5 5 11 9 9 7 7 9 9 7 7 6 3 4 4 4 6 6 7 6 5 4 4 1 3 6 4 4 2 2 2 4 7 7 6 7 8 8
5 6 6 5 5 5 4 5 9 9 7 8 8 9 6 4 3 3 2 3 5 7 7 7 7 7 5 5 4 4 5 3 4 1 1 5 4 6 6 7 7 7 7
8 6 6 6 6 5 3 2 5 3 2 4 5 4 3 4 2 1 1 6 5 6 7 6 5 6 5 2 2 4 2 3 2 2 2 5 8 9 6 7 6 6 6
10 7 8 7 6 7 5 3 2 2 3 3 5 4 3 3 1 1 1 1 1 6 2 3 3 2 2 1 2 2 4 3 1 1 2 7 9 9 8 7 7 7 9
8 9 9 8 6 6 4 4 4 3 3 3 4 5 3 2 2 2 1 1 2 2 2 3 1 3 3 4 3 3 2 3 2 2 3 9 9 8 7 7 7 8 9
8 8 9 8 8 6 7 5 4 4 4 4 4 4 3 3 2 3 0 1 2 2 2 1 0 1 1 4 2 2 3 3 3 2 2 11 8 9 9 8 8 9 9
7 8 7 8 8 7 6 8 6 4 5 4 4 3 4 2 3 2 3 2 2 2 2 2 1 2 3 3 5 3 4 3 3 4 3 3 10 10 8 8 8 8 8
6 7 8 7 6 7 6 5 5 4 4 4 4 5 5 3 3 4 3 1 1 2 2 2 3 3 1 1 1 2 3 2 2 4 3 3 3 11 9 9 9 9 10
7 8 6 6 7 6 6 5 4 4 4 4 4 4 5 4 5 4 2 1 1 1 3 3 2 2 2 3 3 1 1 4 4 3 3 3 3 3 8 11 10 10 11
9 8 7 6 6 6 6 5 5 5 4 4 4 4 5 4 5 4 3 2 2 3 3 3 1 2 1 1 2 2 3 1 4 4 4 4 4 3 2 7 11 10 13
8 8 7 5 6 5 4 4 3 3 3 4 3 4 5 4 5 4 2 3 2 4 3 2 2 2 0 0 3 4 4 1 3 3 2 3 3 4 4 5 4 4 11
9 9 8 8 6 5 4 4 3 3 2 2 3 6 5 5 5 5 3 2 1 2 3 3 3 4 1 1 3 3 3 3 3 2 3 3 4 5 5 5 4 3 4
11 10 8 8 7 5 4 2 3 3 2 2 2 4 5 6 4 4 5 4 3 3 4 3 2 2 2 1 2 3 1 3 2 2 2 4 6 4 5 6 6 6 5
12 12 11 9 8 6 6 4 3 3 3 2 2 3 5 5 5 4 4 3 3 2 3 2 3 5 3 2 0 3 2 4 0 1 1 2 4 4 5 6 7 6 6
13 10 9 9 8 6 7 4 6 4 4 3 4 3 5 6 5 5 4 4 4 2 2 2 4 4 4 4 1 1 3 2 3 1 2 2 2 4 6 4 5 5 5
14 13 9 9 8 7 7 6 5 3 2 2 1 3 4 4 4 5 6 5 5 3 2 4 4 5 3 3 3 2 1 2 1 2 2 3 2 4 4 5 5 5 6
13 15 12 11 10 8 8 7 7 8 5 3 3 3 3 2 3 4 4 4 2 3 2 2 3 6 5 4 2 3 3 3 2 2 1 3 3 3 3 4 5 5 6
Wind_Direction
185 166 171 160 157 149 129 122 114 109 109 105 109 117 126 133 131 130 132 139 141 139 144 149 132 120 114 104 90 92 96 116 135 144 149 144 145 137 134 132 137 135 136
145 156 164 161 161 151 133 125 124 115 113 114 118 126 132 138 135 133 136 137 135 143 160 164 148 130 117 98 93 112 125 145 153 165 173 169 155 150 146 144 131 143 140
143 147 164 167 158 156 140 128 122 124 125 125 131 129 134 133 144 138 141 146 148 154 170 183 168 166 185 122 111 106 106 142 137 138 70 24 21 178 155 133 140 148 143
142 141 148 164 152 156 147 145 137 136 137 132 126 129 131 133 132 143 152 151 155 164 179 175 186 202 218 179 120 41 90 151 138 134 87 3 309 213 164 151 137 165 145
138 131 151 156 159 156 152 155 145 140 139 137 135 143 132 126 116 165 154 156 156 174 182 184 189 187 190 162 133 262 201 171 146 142 174 345 322 156 194 186 184 183 153
134 140 160 162 162 161 161 159 157 152 148 143 142 147 125 128 168 170 158 150 157 156 162 176 182 197 162 148 155 222 229 219 166 129 202 220 283 315 165 167 176 159 146
139 150 156 164 166 167 163 164 154 146 146 141 149 147 116 139 149 149 136 149 145 150 162 170 193 185 172 142 188 235 244 240 109 153 118 176 275 312 136 160 180 165 158
152 153 167 167 172 167 165 167 161 153 151 155 158 134 135 126 120 141 143 148 146 153 158 180 208 189 187 215 229 247 263 296 130 138 191 184 246 315 147 158 165 172 172
154 149 166 165 171 172 166 173 166 161 169 158 140 150 158 138 157 164 158 157 164 163 168 193 209 229 257 260 255 267 272 133 132 122 135 290 189 220 168 158 153 165 169
158 160 164 164 172 156 169 169 170 159 167 157 149 156 133 126 142 151 185 187 172 173 176 201 214 226 251 255 272 231 265 69 126 87 56 294 215 198 175 175 174 193 192
150 171 159 166 161 149 149 181 163 163 169 156 142 138 102 82 64 29 257 230 196 177 173 205 217 222 244 256 259 232 245 107 138 153 90 299 254 208 178 180 184 191 190
178 185 170 164 156 154 153 167 139 147 119 110 103 112 116 131 206 216 330 230 204 168 168 191 218 218 224 269 287 249 105 156 141 198 220 243 235 211 190 196 188 191 202
185 176 180 177 170 157 164 150 136 145 127 126 120 143 160 130 214 89 216 68 21 66 53 56 7 342 147 187 288 236 147 183 196 192 226 218 213 217 198 201 203 206 208
180 187 180 180 173 173 160 147 154 156 145 135 156 160 161 144 173 155 208 183 127 80 87 84 330 279 224 169 212 250 170 166 169 223 217 209 199 215 197 207 213 212 211
178 183 192 172 183 174 171 150 165 177 146 145 158 177 179 192 167 121 306 162 163 98 111 18 25 81 90 168 228 191 203 210 175 195 193 192 190 213 197 211 217 229 232
176 184 174 181 181 166 173 167 171 164 145 157 165 178 203 173 144 144 142 168 186 193 170 218 194 92 138 174 202 216 215 206 189 184 187 209 197 213 205 213 228 232 238
180 157 174 174 157 171 161 155 160 169 153 161 170 176 207 182 167 165 145 111 261 263 157 179 134 114 133 257 251 224 236 217 172 157 180 198 211 211 208 219 223 229 233
153 172 164 175 163 158 162 151 165 163 161 157 178 182 208 201 172 179 174 233 347 55 80 110 102 123 209 201 148 131 31 105 120 140 185 200 205 202 214 220 225 230 234
164 153 157 145 156 158 156 155 159 169 165 174 177 191 190 189 164 173 210 113 85 89 100 104 125 105 146 233 200 73 61 154 160 167 198 210 200 210 219 238 229 231 232
155 151 145 148 150 153 136 126 119 156 161 190 187 200 182 181 175 182 200 143 178 108 76 120 145 108 76 280 37 36 17 75 138 172 194 232 211 212 219 230 250 243 241
151 145 154 149 160 151 146 148 145 175 166 179 185 190 193 189 198 181 201 148 157 149 159 136 131 134 95 11 77 30 351 29 115 180 173 220 228 210 222 224 222 224 244
168 159 157 162 162 168 154 140 137 152 179 144 170 177 198 194 196 174 180 179 187 167 120 91 119 113 76 77 115 77 65 359 354 270 231 224 225 208 213 224 226 224 227
173 173 168 168 169 169 160 119 86 67 44 96 171 198 217 209 200 202 180 162 221 242 128 111 140 112 133 27 117 158 111 214 207 285 160 256 241 221 233 220 225 223 219
181 171 163 165 170 172 160 153 152 172 164 195 180 202 212 207 213 196 212 195 222 198 140 148 140 143 121 157 112 13 57 119 151 310 304 290 322 251 240 211 216 224 225
173 167 168 169 175 169 177 169 154 178 189 131 183 193 218 212 218 199 198 201 217 197 175 144 161 156 163 151 157 157 86 70 95 113 232 291 318 248 235 217 214 208 218
164 171 171 176 185 167 181 174 173 179 188 165 191 209 218 229 208 231 212 205 292 285 249 198 187 170 182 140 152 160 157 139 173 162 200 255 237 255 255 241 213 201 214